User: anonymous   Login
Location: Elstree
(51.6403°N, 0.2969°W)
Time: 21:01:02
(UTC+00:00)
Language:

IRIDIUM 33 DEB - Orbit

View from above orbital plane
View from above orbital plane
View from above satellite
View from above satellite

Ground track
Ground track

The orbit data is extracted from the following two-line orbital elements,

1 33960U 97051BV  22024.58584769  .00001159  00000-0  30221-3 0  9992
2 33960  86.2744 210.4355 0007604 194.9848 233.3003 14.48728004681630
Epoch (UTC): 24 January 2022 14:03:37
Eccentricity: 0.0007604
inclination: 86.2744°
perigee height: 724 km
apogee height: 735 km
right ascension of ascending node: 210.4355°
argument of perigee: 194.9848°
revolutions per day: 14.48728004
mean anomaly at epoch: 233.3003°
orbit number at epoch: 68163

The dashed part of the orbit path shows where the satellite is in the earth's shadow,  

DLR